Skip Page Navigation
NASA JPL Caltech
NASA Logo - Jet Propulsion Laboratory + View the NASA Portal
+ Near-Earth Object (NEO) Program
Search JPL
JPL Home Earth Solar System Stars & Galaxies Technology
JPL Solar System Dynamics
BODIES ORBITS EPHEMERIDES TOOLS PHYSICAL DATA DISCOVERY FAQ SITE MAP
JPL Small-Body Database Browser
Search: [ help ]  
(2006 VW2)
Classification: Apollo [NEO, PHA]          SPK-ID: 3358221
Ephemeris | Orbit Diagram | Orbital Elements | Physical Parameters | Close-Approach Data ]

[ hide orbit diagram ]
Orbit Diagram
Note: Make sure you have Java enabled on your browser to see the applet. This applet is provided as a 3D orbit visualization tool. The applet was implemented using 2-body methods, and hence should not be used for determining accurate long-term trajectories (over several years or decades) or planetary encounter circumstances. For accurate long-term ephemerides, please instead use our Horizons system.
Orbit Viewer

Additional Notes: the orbits shown in the applet are color coded. The planets are white lines, and the asteroid/comet is a blue line. The bright white line indicates the portion of the orbit that is above the ecliptic plane, and the darker portion is below the ecliptic plane. Likewise for the asteroid/comet orbit, the light blue indicates the portion above the ecliptic plane, and the dark blue the portion below the ecliptic plane.

Orbit Viewer applet originally written and kindly provided by Osamu Ajiki (AstroArts), and further modified by Ron Baalke (JPL).


Orbital Elements at Epoch 2456400.5 (2013-Apr-18.0) TDB
Reference: JPL 17 (heliocentric ecliptic J2000)
 Element Value Uncertainty (1-sigma)   Units 
e .2945101399228044 3.0505e-07  
a 1.235927904652585 9.8133e-08 AU
q .8719346045188533 3.5527e-07 AU
i 10.04774798145499 3.0192e-05 deg
node 229.8561463637675 2.7955e-05 deg
peri 299.6342897418897 4.408e-05 deg
M 157.0145862504689 0.00020085 deg
tp 2456181.610145824493
(2012-Sep-11.11014582)
0.00025523 JED
period 501.8664149933224
1.37
5.9773e-05
1.636e-07
d
yr
n .7173223575934843 8.5433e-08 deg/d
Q 1.599921204786316 1.2703e-07 AU
  Orbit Determination Parameters
   # obs. used (total)      91  
   data-arc span      1400 days (3.83 yr)  
   first obs. used      2006-11-11  
   last obs. used      2010-09-11  
   planetary ephem.      DE405  
   SB-pert. ephem.      SB405-CPV-2  
   condition code      1  
   fit RMS      .64961  
   data source      ORB  
   producer      Otto Matic  
   solution date      2011-Sep-14 20:13:17  

Additional Information
 Earth MOID = .0154299 AU 
 T_jup = 5.127 
[ show covariance matrix ]

Ephemeris | Orbit Diagram | Orbital Elements | Physical Parameters | Close-Approach Data ]

Physical Parameter Table
Parameter Symbol Value Units Sigma Reference Notes
absolute magnitude H 21.227 mag .54388 17 autocmod 2.5a

[ show close-approach data ]
Ephemeris | Orbit Diagram | Orbital Elements | Physical Parameters | Close-Approach Data ]
ABOUT SSD CREDITS/AWARDS PRIVACY/COPYRIGHT GLOSSARY LINKS
FirstGov 2013-May-19 08:21 UT
(server date/time)  
NASA Home Page
Site Manager:   Donald K. Yeomans
Webmaster  Alan B. Chamberlin